Location: *
(43.9905°S, 176.4941°W)
Time: 13:18:03
(UTC+00:00)

Helios 1A - Pass Details

Date: 08 December 2019
Orbit: 583 x 605 km, 98.2° (Epoch: 09 September)

Event Time Altitude Azimuth Distance (km) Brightness Sun altitude
Rises 11:28:40 0° 159° (SSE) 2,869 7.6 -23.3°
Reaches altitude 10° 11:31:00 10° 151° (SSE) 1,955 6.4 -23.3°
Enters shadow 11:34:50 38° 86° (E) 927 3.8 -23.3°
